GW1821 Weather Reports


Display with metric or nautical units.
time (UTC)temp
F
wind
direction
speed
MPH
gust
MPH
rain 1hr
in
rain 24hr
in
rain mn
in
humidity
%
barometer
mb
20260502130500 43 253 2.0 7.0 0.00 0.00 0.00 69 1016.0
20260502130223 42 243 1.0 5.0 0.00 0.00 0.00 71 1016.0
20260502123705 38 264 2.0 6.0 0.00 0.00 0.00 80 1016.0
20260502122942 38 260 2.0 6.0 0.00 0.00 0.00 81 1015.9
20260502122441 37 261 3.0 6.0 0.00 0.00 0.00 82 1016.0
20260502121935 37 263 3.0 6.0 0.00 0.00 0.00 83 1016.0
20260502121432 36 263 2.0 6.0 0.00 0.00 0.00 84 1015.9
20260502120933 35 259 2.0 6.0 0.00 0.00 0.00 84 1015.9
20260502120423 35 259 2.0 5.0 0.00 0.00 0.00 85 1015.9
20260502115923 34 274 2.0 5.0 0.00 0.00 0.00 85 1015.9
20260502115413 33 257 2.0 6.0 0.00 0.00 0.00 86 1016.0
20260502115129 33 257 2.0 6.0 0.00 0.00 0.00 86 1016.0
20260502114624 33 254 1.0 4.0 0.00 0.00 0.00 85 1015.9
20260502113903 32 254 1.0 4.0 0.00 0.00 0.00 85 1015.9
20260502113358 32 254 1.0 4.0 0.00 0.00 0.00 85 1015.9
20260502112851 32 254 1.0 4.0 0.00 0.00 0.00 85 1015.9
20260502112550 32 254 0.0 2.0 0.00 0.00 0.00 85 1015.8
20260502111824 32 254 0.0 2.0 0.00 0.00 0.00 85 1015.8
20260502111309 32 254 0.0 2.0 0.00 0.00 0.00 85 1015.8
20260502110808 31 254 0.0 2.0 0.00 0.00 0.00 85 1015.7
20260502110302 31 254 0.0 1.0 0.00 0.00 0.00 85 1015.8
20260502105742 31 254 0.0 1.0 0.00 0.00 0.00 85 1015.7
20260502105244 31 254 0.0 1.0 0.00 0.00 0.00 85 1015.8
20260502104942 31 254 0.0 0.0 0.00 0.00 0.00 84 1015.7
20260502104201 31 254 0.0 0.0 0.00 0.00 0.00 84 1015.7
20260502103640 31 254 0.0 0.0 0.00 0.00 0.00 84 1015.7
20260502103134 31 254 0.0 0.0 0.00 0.00 0.00 84 1015.7
20260502102605 31 254 0.0 0.0 0.00 0.00 0.00 84 1015.7
20260502102102 31 254 0.0 0.0 0.00 0.00 0.00 84 1015.7
20260502101553 31 254 0.0 0.0 0.00 0.00 0.00 84 1015.7
20260502101035 32 254 0.0 0.0 0.00 0.00 0.00 84 1015.8
20260502100537 32 254 0.0 0.0 0.00 0.00 0.00 84 1015.7
20260502091356 32 254 0.0 0.0 0.00 0.00 0.00 82 1015.6
20260502091343 33 254 0.0 0.0 0.00 0.00 0.00 82 1015.5
20260502090558 33 254 0.0 0.0 0.00 0.00 0.00 81 1015.5
20260502071424 35 254 0.0 0.0 0.00 0.00 0.00 76 1015.7
20260502071139 35 254 0.0 0.0 0.00 0.00 0.00 76 1015.7
20260502070417 35 254 0.0 0.0 0.00 0.00 0.00 76 1015.8
20260502065910 35 254 0.0 0.0 0.00 0.00 0.00 76 1015.8
20260502065406 36 254 0.0 0.0 0.00 0.00 0.00 75 1015.8
20260502064901 36 254 0.0 0.0 0.00 0.00 0.00 75 1015.8
20260502064359 36 254 0.0 0.0 0.00 0.00 0.00 75 1015.8
20260502063830 36 254 0.0 0.0 0.00 0.00 0.00 75 1015.9
20260502063316 37 254 0.0 0.0 0.00 0.00 0.00 75 1015.9
20260502062814 37 254 0.0 0.0 0.00 0.00 0.00 74 1015.9
20260502062311 37 254 0.0 0.0 0.00 0.00 0.00 74 1015.9
20260502062027 37 254 0.0 0.0 0.00 0.00 0.00 74 1015.9
20260502061749 37 254 0.0 0.0 0.00 0.00 0.00 73 1015.9
20260502060751 38 254 0.0 0.0 0.00 0.00 0.00 73 1015.9
20260502060242 38 254 0.0 0.0 0.00 0.00 0.00 74 1015.9
20260502055951 38 254 0.0 0.0 0.00 0.00 0.00 74 1015.9
20260502055214 38 254 0.0 0.0 0.00 0.00 0.00 75 1015.9
20260502054934 38 254 0.0 0.0 0.00 0.00 0.00 75 1015.9
20260502054204 38 254 0.0 0.0 0.00 0.00 0.00 74 1016.0
20260502053700 38 254 0.0 0.0 0.00 0.00 0.00 74 1016.0
20260502053148 38 254 0.0 0.0 0.00 0.00 0.00 73 1016.0
20260502052642 38 254 0.0 0.0 0.00 0.00 0.00 72 1016.0
20260502052139 38 254 0.0 0.0 0.00 0.00 0.00 72 1016.0
20260502051633 38 254 0.0 0.0 0.00 0.00 0.00 71 1016.0
20260502051131 38 254 0.0 1.0 0.00 0.00 0.00 71 1016.0
20260502050619 38 254 0.0 1.0 0.00 0.00 0.00 71 1016.0
20260502045533 38 254 0.0 0.0 0.00 0.00 0.00 71 1016.0
20260502045037 38 254 0.0 0.0 0.00 0.00 0.00 70 1016.0
20260502044537 39 254 0.0 0.0 0.00 0.00 0.00 70 1016.0
20260502044027 39 254 0.0 0.0 0.00 0.00 0.00 69 1015.9
20260502043516 39 254 0.0 0.0 0.00 0.00 0.00 69 1016.0
20260502043018 39 254 0.0 0.0 0.00 0.00 0.00 69 1016.0
20260502042512 40 254 0.0 0.0 0.00 0.00 0.00 68 1016.0
20260502042235 40 254 0.0 0.0 0.00 0.00 0.00 68 1015.9
20260502041510 40 254 0.0 0.0 0.00 0.00 0.00 67 1016.0
20260502041232 40 254 0.0 0.0 0.00 0.00 0.00 66 1015.9
20260502040729 41 254 0.0 0.0 0.00 0.00 0.00 66 1016.0
20260502040006 41 254 0.0 0.0 0.00 0.00 0.00 66 1016.0
20260502035502 41 254 0.0 0.0 0.00 0.00 0.00 65 1016.0
20260502034959 41 254 0.0 0.0 0.00 0.00 0.00 65 1016.0
20260502034456 42 254 0.0 0.0 0.00 0.00 0.00 64 1016.0
20260502033920 42 254 0.0 0.0 0.00 0.00 0.00 64 1016.0
20260502033623 42 254 0.0 0.0 0.00 0.00 0.00 63 1016.0
20260502032848 42 254 0.0 0.0 0.00 0.00 0.00 62 1016.0
20260502032341 42 254 0.0 0.0 0.00 0.00 0.00 62 1016.0
20260502031833 43 254 0.0 0.0 0.00 0.00 0.00 60 1016.0
20260502031327 43 254 0.0 0.0 0.00 0.00 0.00 60 1016.0
20260502030823 43 254 0.0 0.0 0.00 0.00 0.00 58 1016.0
20260502030306 43 254 0.0 0.0 0.00 0.00 0.00 57 1016.0
20260502030011 44 254 0.0 0.0 0.00 0.00 0.00 57 1016.0
20260502025246 44 254 0.0 0.0 0.00 0.00 0.00 57 1016.0
20260502024736 44 254 0.0 0.0 0.00 0.00 0.00 57 1016.0
20260502024451 44 254 0.0 0.0 0.00 0.00 0.00 56 1016.1
20260502023726 45 254 0.0 0.0 0.00 0.00 0.00 56 1016.0
20260502023210 45 254 0.0 0.0 0.00 0.00 0.00 54 1016.0
20260502022707 45 254 0.0 1.0 0.00 0.00 0.00 53 1016.0
20260502022150 46 254 0.0 1.0 0.00 0.00 0.00 51 1015.9
20260502022125 46 254 0.0 0.0 0.00 0.00 0.00 50 1015.9
20260502021143 47 254 0.0 0.0 0.00 0.00 0.00 51 1015.8
20260502020643 47 254 0.0 0.0 0.00 0.00 0.00 50 1015.8
20260502020359 48 254 0.0 0.0 0.00 0.00 0.00 48 1015.7
20260502015616 49 254 0.0 0.0 0.00 0.00 0.00 46 1015.7
20260502015038 49 254 0.0 0.0 0.00 0.00 0.00 45 1015.6
20260502014522 50 254 0.0 0.0 0.00 0.00 0.00 45 1015.5
20260502014002 50 254 0.0 1.0 0.00 0.00 0.00 45 1015.5
20260502013459 51 254 0.0 3.0 0.00 0.00 0.00 44 1015.4
20260502012954 51 254 0.0 3.0 0.00 0.00 0.00 42 1015.4
20260502012716 51 254 1.0 3.0 0.00 0.00 0.00 40 1015.4
20260502011950 52 254 1.0 3.0 0.00 0.00 0.00 39 1015.4
20260502011444 52 254 1.0 4.0 0.00 0.00 0.00 38 1015.4
20260502010945 52 254 1.0 4.0 0.00 0.00 0.00 38 1015.4
20260502010440 52 246 2.0 5.0 0.00 0.00 0.00 37 1015.3
20260502005939 53 313 2.0 6.0 0.00 0.00 0.00 36 1015.4
20260502005422 53 321 2.0 6.0 0.00 0.00 0.00 36 1015.3
20260502004921 53 345 2.0 5.0 0.00 0.00 0.00 36 1015.3
20260502004644 53 355 2.0 6.0 0.00 0.00 0.00 37 1015.3
20260502003912 53 307 2.0 6.0 0.00 0.00 0.00 35 1015.1
20260502003413 53 321 2.0 6.0 0.00 0.00 0.00 35 1015.3
20260502002912 53 317 2.0 5.0 0.00 0.00 0.00 36 1015.3
20260502002636 53 328 2.0 8.0 0.00 0.00 0.00 35 1015.3
20260502002132 53 310 3.0 8.0 0.00 0.00 0.00 35 1015.4
20260502001404 53 303 2.0 7.0 0.00 0.00 0.00 35 1015.3
20260502001128 53 283 2.0 7.0 0.00 0.00 0.00 36 1015.3
20260502000402 54 296 2.0 6.0 0.00 0.00 0.00 35 1015.4
20260501235900 54 318 2.0 8.0 0.00 0.00 0.00 35 1015.3
20260501235355 54 263 3.0 9.0 0.00 0.00 0.00 35 1015.3
20260501234853 54 310 2.0 9.0 0.00 0.00 0.00 34 1015.3
20260501234351 54 292 3.0 9.0 0.00 0.00 0.00 35 1015.4
20260501233848 54 316 3.0 9.0 0.00 0.00 0.00 37 1015.4
20260501233607 54 299 3.0 8.0 0.00 0.00 0.00 34 1015.4
20260501232848 55 0 3.0 11.0 0.00 0.00 0.00 36 1015.4
20260501232341 55 336 4.0 11.0 0.00 0.00 0.00 35 1015.4
20260501231842 56 298 4.0 11.0 0.00 0.00 0.00 33 1015.3
20260501231336 57 309 4.0 11.0 0.00 0.00 0.00 32 1015.3
20260501230834 57 5 4.0 9.0 0.00 0.00 0.00 32 1015.3
20260501230327 57 355 3.0 6.0 0.00 0.00 0.00 31 1015.3
20260501225823 56 5 3.0 7.0 0.00 0.00 0.00 37 1015.4
20260501225325 55 334 3.0 8.0 0.00 0.00 0.00 39 1015.4
20260501224825 55 13 3.0 8.0 0.00 0.00 0.00 34 1015.4
20260501224322 54 64 3.0 6.0 0.00 0.00 0.00 35 1015.5
20260501223823 54 5 3.0 6.0 0.00 0.00 0.00 34 1015.4
20260501222821 54 355 4.0 9.0 0.00 0.00 0.00 33 1015.4
20260501222812 55 355 3.0 10.0 0.00 0.00 0.00 34 1015.5
20260501222047 55 301 3.0 10.0 0.00 0.00 0.00 33 1015.5
20260501221318 54 326 3.0 6.0 0.00 0.00 0.00 36 1015.5
20260501221259 54 333 3.0 10.0 0.00 0.00 0.00 34 1015.5
20260501220531 55 329 3.0 10.0 0.00 0.00 0.00 35 1015.5
20260501215803 55 5 3.0 10.0 0.00 0.00 0.00 34 1015.5
20260501215305 55 35 3.0 11.0 0.00 0.00 0.00 34 1015.5
20260501214803 55 355 4.0 11.0 0.00 0.00 0.00 34 1015.5
20260501214259 55 291 4.0 11.0 0.00 0.00 0.00 37 1015.5
20260501213800 55 63 3.0 11.0 0.00 0.00 0.00 38 1015.5
20260501213300 55 20 4.0 11.0 0.00 0.00 0.00 33 1015.5
20260501213243 56 35 5.0 11.0 0.00 0.00 0.00 36 1015.6
20260501212301 56 329 4.0 12.0 0.00 0.00 0.00 34 1015.6
20260501211751 57 5 4.0 12.0 0.00 0.00 0.00 37 1015.5
20260501211250 56 317 4.0 10.0 0.00 0.00 0.00 36 1015.6
20260501211236 56 11 4.0 10.0 0.00 0.00 0.00 35 1015.6
20260501210502 56 287 4.0 10.0 0.00 0.00 0.00 35 1015.6
20260501205738 55 309 4.0 11.0 0.00 0.00 0.00 37 1015.7
20260501205239 54 5 4.0 12.0 0.00 0.00 0.00 35 1015.7
20260501205008 54 42 4.0 12.0 0.00 0.00 0.00 37 1015.8
20260501204233 54 332 3.0 9.0 0.00 0.00 0.00 38 1015.8
20260501203737 55 313 2.0 9.0 0.00 0.00 0.00 35 1015.7
20260501203714 55 34 4.0 11.0 0.00 0.00 0.00 40 1015.8
20260501202725 54 239 3.0 11.0 0.00 0.00 0.00 38 1015.8
20260501202219 53 331 3.0 14.0 0.00 0.00 0.00 36 1015.9
20260501201723 53 350 4.0 14.0 0.00 0.00 0.00 36 1015.9
20260501201219 54 9 3.0 9.0 0.00 0.00 0.00 37 1015.9
20260501200713 54 75 2.0 5.0 0.00 0.00 0.00 36 1015.9
20260501200434 54 336 3.0 7.0 0.00 0.00 0.00 39 1016.0
20260501195931 53 304 4.0 9.0 0.00 0.00 0.00 40 1016.1
20260501195659 52 287 4.0 9.0 0.00 0.00 0.00 36 1016.2
20260501194704 53 289 4.0 9.0 0.00 0.00 0.00 41 1016.1
20260501194142 54 304 4.0 9.0 0.00 0.00 0.00 37 1016.1
20260501193642 55 290 4.0 9.0 0.00 0.00 0.00 38 1016.1
20260501193141 53 38 4.0 13.0 0.00 0.00 0.00 39 1016.1
20260501192911 53 304 5.0 13.0 0.00 0.00 0.00 40 1016.2
20260501192133 52 336 4.0 11.0 0.00 0.00 0.00 43 1016.2
20260501191633 52 36 3.0 10.0 0.00 0.00 0.00 42 1016.1
20260501191119 52 305 3.0 9.0 0.00 0.00 0.00 40 1016.2
20260501190611 51 24 4.0 12.0 0.00 0.00 0.00 39 1016.3
20260501190111 52 0 4.0 12.0 0.00 0.00 0.00 39 1016.4
20260501185613 52 5 3.0 9.0 0.00 0.00 0.00 40 1016.2
20260501185115 52 29 4.0 8.0 0.00 0.00 0.00 43 1016.2
20260501185055 52 310 5.0 15.0 0.00 0.00 0.00 39 1016.2
20260501184107 53 36 5.0 17.0 0.00 0.00 0.00 42 1016.3
20260501183840 53 348 4.0 17.0 0.00 0.00 0.00 44 1016.2
20260501183102 53 289 4.0 9.0 0.00 0.00 0.00 45 1016.2
20260501182600 53 355 3.0 11.0 0.00 0.00 0.00 39 1016.4
20260501182323 52 342 4.0 11.0 0.00 0.00 0.00 41 1016.4
20260501181551 52 287 4.0 10.0 0.00 0.00 0.00 42 1016.4
20260501181052 51 67 4.0 10.0 0.00 0.00 0.00 40 1016.5
20260501180552 51 35 3.0 10.0 0.00 0.00 0.00 39 1016.5
20260501180052 52 323 4.0 10.0 0.00 0.00 0.00 45 1016.5
20260501175545 52 22 4.0 10.0 0.00 0.00 0.00 41 1016.4
20260501175043 52 250 4.0 12.0 0.00 0.00 0.00 38 1016.5
20260501174543 53 306 4.0 12.0 0.00 0.00 0.00 39 1016.6
20260501174531 52 42 4.0 11.0 0.00 0.00 0.00 42 1016.6
20260501173536 51 26 4.0 10.0 0.00 0.00 0.00 45 1016.5
20260501172803 50 0 4.0 11.0 0.00 0.00 0.00 44 1016.7
20260501172259 51 306 3.0 11.0 0.00 0.00 0.00 46 1016.6
20260501171847 50 302 2.0 8.0 0.00 0.00 0.00 45 1016.6
20260501170753 50 11 4.0 13.0 0.00 0.00 0.00 44 1016.8
20260501170253 49 39 4.0 11.0 0.00 0.00 0.00 47 1016.8
20260501170026 49 302 3.0 9.0 0.00 0.00 0.00 45 1016.9
20260501165249 48 12 3.0 8.0 0.00 0.00 0.00 47 1016.8
20260501164750 48 220 3.0 10.0 0.00 0.00 0.00 44 1016.8
20260501164251 48 319 3.0 10.0 0.00 0.00 0.00 43 1016.9
20260501163750 49 5 4.0 9.0 0.00 0.00 0.00 46 1016.9
20260501163457 49 312 4.0 14.0 0.00 0.00 0.00 44 1016.9
20260501162736 49 347 4.0 14.0 0.00 0.00 0.00 45 1016.9
20260501162235 48 5 3.0 9.0 0.00 0.00 0.00 49 1016.8
20260501161733 48 329 4.0 10.0 0.00 0.00 0.00 45 1016.8
20260501161234 48 5 4.0 10.0 0.00 0.00 0.00 44 1016.8
20260501160952 48 307 3.0 10.0 0.00 0.00 0.00 49 1016.9
20260501160232 47 342 3.0 10.0 0.00 0.00 0.00 46 1016.9
20260501155945 48 344 3.0 10.0 0.00 0.00 0.00 46 1016.9
20260501155453 48 12 3.0 12.0 0.00 0.00 0.00 47 1016.8
20260501154724 48 343 4.0 12.0 0.00 0.00 0.00 45 1016.9
20260501154225 48 44 4.0 12.0 0.00 0.00 0.00 47 1016.9
20260501153719 48 31 4.0 12.0 0.00 0.00 0.00 47 1016.8
20260501153223 48 292 4.0 11.0 0.00 0.00 0.00 46 1016.8
20260501152702 48 46 4.0 12.0 0.00 0.00 0.00 48 1016.8
20260501152202 47 61 4.0 12.0 0.00 0.00 0.00 47 1016.8
20260501151701 47 13 3.0 12.0 0.00 0.00 0.00 49 1016.9
20260501151159 47 355 3.0 12.0 0.00 0.00 0.00 47 1016.9
20260501150658 47 27 3.0 8.0 0.00 0.00 0.00 48 1016.8
20260501150157 47 28 4.0 10.0 0.00 0.00 0.00 48 1016.8
20260501145658 47 47 4.0 11.0 0.00 0.00 0.00 48 1016.8
20260501145146 47 17 4.0 11.0 0.00 0.00 0.00 50 1016.9